Date String (YYYY-MM-DD hh:mm:ss) UTC,Instrument flags,Ambient pressure (hPa),Sample flow (lpm),Bypass flow (lpm),Sample temperature (°C),Ambient temperature (°C),ASC tube jacket temperature (°C),LED temperature (°C),Box temperature (°C),Sample RH (%),Span deviation,Mass concentration (μg/m³),Mass concentration (μg/m³),Mass concentration (μg/m³)
DateTimeUTC,F1_M11,P_M11,Q1_M11,Q2_M11,T1_M11,T2_M11,T3_M11,T4_M11,T5_M11,U1_M11,ZSPAN_M11,X0_M11,X2_M11,X1_M11
2021-12-09 20:00:00,,0814.5,5.01,0.00,26.2,25.3,00.0,35.1,28.0,13.0,0000.0,0019.40,0003.76,0002.25
2021-12-09 20:01:00,,0814.5,5.00,0.00,26.2,25.3,00.0,35.1,28.0,13.0,0000.0,0019.77,0003.74,0002.26
2021-12-09 20:02:00,,0814.2,4.99,0.00,26.2,25.3,00.0,35.1,28.0,13.0,0000.0,0020.93,0003.75,0002.26
2021-12-09 20:03:00,,0814.4,5.00,0.00,26.2,25.3,00.0,35.1,28.0,13.0,0000.0,0019.46,0003.73,0002.27
2021-12-09 20:04:00,,0814.2,5.01,0.00,26.2,25.3,00.0,35.1,28.0,13.0,0000.0,0017.38,0003.70,0002.29
2021-12-09 20:05:00,,0814.3,4.99,0.00,26.2,25.3,00.0,35.1,28.0,13.1,0000.0,0017.42,0003.70,0002.31
2021-12-09 20:06:00,,0814.2,5.01,0.00,26.2,25.3,00.0,35.1,28.0,13.1,0000.0,0016.75,0003.72,0002.30
2021-12-09 20:07:00,,0814.2,4.99,0.00,26.2,25.4,00.0,35.1,28.0,13.0,0000.0,0016.11,0003.73,0002.30
2021-12-09 20:08:00,,0814.3,5.02,0.00,26.2,25.4,00.0,35.1,28.0,13.1,0000.0,0015.64,0003.74,0002.29
2021-12-09 20:09:00,,0814.1,4.99,0.00,26.2,25.4,00.0,35.1,28.0,13.0,0000.0,0015.03,0003.71,0002.29
2021-12-09 20:10:00,,0814.2,5.01,0.00,26.2,25.4,00.0,35.1,28.0,13.0,0000.0,0014.08,0003.70,0002.29
2021-12-09 20:11:00,,0814.3,5.00,0.00,26.2,25.4,00.0,35.1,28.0,13.0,0000.0,0013.98,0003.71,0002.30
2021-12-09 20:12:00,,0814.5,5.00,0.00,26.2,25.4,00.0,35.1,28.0,13.0,0000.0,0013.16,0003.68,0002.31
2021-12-09 20:13:00,,0814.2,5.00,0.00,26.2,25.4,00.0,35.1,28.0,13.1,0000.0,0012.17,0003.65,0002.30
2021-12-09 20:14:00,,0814.2,5.00,0.00,26.2,25.4,00.0,35.1,28.0,13.0,0000.0,0012.37,0003.68,0002.29
2021-12-09 20:15:00,,0814.1,5.01,0.00,26.2,25.4,00.0,35.1,28.0,13.0,0000.0,0012.17,0003.70,0002.28
2021-12-09 20:16:00,,0814.2,4.99,0.00,26.2,25.4,00.0,35.1,28.0,13.0,0000.0,0012.54,0003.70,0002.27
2021-12-09 20:17:00,,0814.4,5.01,0.00,26.2,25.4,00.0,35.1,28.0,13.0,0000.0,0013.19,0003.68,0002.24
2021-12-09 20:18:00,,0814.3,5.00,0.00,26.2,25.4,00.0,35.2,28.0,13.0,0000.0,0013.14,0003.63,0002.21
2021-12-09 20:19:00,,0814.2,5.00,0.00,26.2,25.4,00.0,35.2,28.0,13.1,0000.0,0014.10,0003.58,0002.19
2021-12-09 20:20:00,,0814.4,4.99,0.00,26.2,25.4,00.0,35.2,28.0,13.1,0000.0,0014.07,0003.56,0002.17
2021-12-09 20:21:00,,0814.1,5.01,0.00,26.2,25.4,00.0,35.2,28.0,13.0,0000.0,0014.38,0003.56,0002.14
2021-12-09 20:22:00,,0814.0,5.00,0.00,26.2,25.4,00.0,35.2,28.0,13.0,0000.0,0013.54,0003.54,0002.12
2021-12-09 20:23:00,,0814.0,5.00,0.00,26.2,25.4,00.0,35.2,28.0,13.0,0000.0,0014.09,0003.53,0002.09
2021-12-09 20:24:00,,0814.1,5.00,0.00,26.2,25.4,00.0,35.2,28.1,13.0,0000.0,0014.24,0003.51,0002.07
2021-12-09 20:25:00,,0814.0,4.99,0.00,26.2,25.4,00.0,35.2,28.0,13.0,0000.0,0013.88,0003.49,0002.06
2021-12-09 20:26:00,,0814.0,5.00,0.00,26.2,25.4,00.0,35.2,28.0,13.0,0000.0,0013.82,0003.46,0002.04
2021-12-09 20:27:00,,0814.0,5.00,0.00,26.2,25.4,00.0,35.2,28.0,13.0,0000.0,0013.01,0003.41,0002.01
2021-12-09 20:28:00,,0814.0,5.00,0.00,26.2,25.4,00.0,35.2,28.0,13.0,0000.0,0012.25,0003.39,0002.01
2021-12-09 20:29:00,,0814.0,4.99,0.00,26.2,25.4,00.0,35.2,28.0,13.0,0000.0,0012.17,0003.38,0002.02
2021-12-09 20:30:00,,0814.1,5.01,0.00,26.2,25.4,00.0,35.2,28.0,13.0,0000.0,0011.20,0003.38,0002.02
2021-12-09 20:31:00,,0814.0,4.99,0.00,26.2,25.4,00.0,35.2,28.0,13.0,0000.0,0011.03,0003.36,0002.01
2021-12-09 20:32:00,,0814.2,5.01,0.00,26.2,25.4,00.0,35.2,28.0,13.0,0000.0,0010.80,0003.32,0002.01
2021-12-09 20:33:00,,0814.0,4.99,0.00,26.2,25.4,00.0,35.2,28.0,13.0,0000.0,0011.69,0003.30,0002.02
2021-12-09 20:34:00,,0814.0,5.01,0.00,26.2,25.4,00.0,35.2,28.0,13.0,0000.0,0011.87,0003.31,0002.03
2021-12-09 20:35:00,,0814.2,4.99,0.00,26.2,25.4,00.0,35.2,28.0,13.0,0000.0,0011.77,0003.32,0002.03
2021-12-09 20:36:00,,0814.2,5.00,0.00,26.2,25.4,00.0,35.2,28.0,13.0,0000.0,0012.07,0003.28,0002.02
2021-12-09 20:37:00,,0814.1,4.99,0.00,26.2,25.4,00.0,35.2,28.0,13.0,0000.0,0012.23,0003.26,0002.03
2021-12-09 20:38:00,,0814.0,4.99,0.00,26.2,25.4,00.0,35.2,28.1,13.0,0000.0,0012.94,0003.30,0002.03
2021-12-09 20:39:00,,0814.3,5.01,0.00,26.2,25.4,00.0,35.2,28.1,13.0,0000.0,0014.41,0003.34,0002.03
2021-12-09 20:40:00,,0814.2,5.01,0.00,26.2,25.4,00.0,35.2,28.1,13.0,0000.0,0014.28,0003.36,0002.02
2021-12-09 20:41:00,,0814.1,4.99,0.00,26.3,25.4,00.0,35.2,28.1,13.0,0000.0,0014.39,0003.35,0002.02
2021-12-09 20:42:00,,0814.1,5.00,0.00,26.2,25.4,00.0,35.2,28.1,13.0,0000.0,0014.02,0003.37,0002.03
2021-12-09 20:43:00,,0814.2,4.98,0.00,26.2,25.4,00.0,35.2,28.0,13.0,0000.0,0013.54,0003.34,0002.01
2021-12-09 20:44:00,,0814.1,5.02,0.00,26.2,25.4,00.0,35.2,28.0,13.0,0000.0,0012.77,0003.36,0002.00
2021-12-09 20:45:00,,0813.9,4.99,0.00,26.2,25.4,00.0,35.2,28.0,13.0,0000.0,0012.02,0003.37,0001.99
2021-12-09 20:46:00,,0814.0,5.02,0.00,26.2,25.4,00.0,35.2,28.1,13.0,0000.0,0011.49,0003.37,0001.99
2021-12-09 20:47:00,,0814.5,5.01,0.00,26.2,25.4,00.0,35.2,28.1,12.9,0000.0,0011.96,0003.38,0002.00
2021-12-09 20:48:00,,0814.0,5.00,0.00,26.3,25.4,00.0,35.2,28.0,12.9,0000.0,0012.15,0003.37,0002.00
2021-12-09 20:49:00,,0814.3,5.00,0.00,26.3,25.4,00.0,35.2,28.0,12.9,0000.0,0011.83,0003.33,0002.00
2021-12-09 20:50:00,,0814.3,4.98,0.00,26.3,25.4,00.0,35.2,28.1,12.9,0000.0,0010.97,0003.31,0002.01
2021-12-09 20:51:00,,0814.0,5.01,0.00,26.3,25.4,00.0,35.2,28.0,12.9,0000.0,0012.22,0003.32,0002.02
2021-12-09 20:52:00,,0814.1,5.00,0.00,26.3,25.4,00.0,35.2,28.0,12.9,0000.0,0012.55,0003.33,0002.03
2021-12-09 20:53:00,,0813.9,5.00,0.00,26.3,25.4,00.0,35.2,28.0,12.9,0000.0,0012.55,0003.35,0002.03
2021-12-09 20:54:00,,0813.9,5.00,0.00,26.3,25.4,00.0,35.2,28.1,12.9,0000.0,0012.54,0003.36,0002.04
2021-12-09 20:55:00,,0813.9,4.99,0.00,26.3,25.4,00.0,35.2,28.0,12.9,0000.0,0012.51,0003.36,0002.06
2021-12-09 20:56:00,,0813.9,5.00,0.00,26.3,25.4,00.0,35.2,28.1,12.9,0000.0,0012.60,0003.35,0002.06
2021-12-09 20:57:00,,0813.9,5.00,0.00,26.3,25.4,00.0,35.2,28.1,12.9,0000.0,0012.78,0003.35,0002.07
2021-12-09 20:58:00,,0813.9,4.99,0.00,26.3,25.4,00.0,35.2,28.1,12.9,0000.0,0011.78,0003.36,0002.08
2021-12-09 20:59:00,,0813.9,5.00,0.00,26.3,25.4,00.0,35.2,28.1,12.9,0000.0,0011.53,0003.37,0002.07
